23-04-2023, 00:00:05,    149,    1.8,    7.3,   0.00,   0.00,  999.3,    0.6, -999.0
23-04-2023, 00:00:15,    156,    0.6,    7.3,   0.00,   0.00,  999.3,    0.4, -999.0
23-04-2023, 00:00:25,    154,    0.6,    7.3,   0.00,   0.00,  999.2,    0.4, -999.0
23-04-2023, 00:00:35,    121,    1.8,    7.4,   0.00,   0.00,  999.3,    0.5, -999.0
23-04-2023, 00:00:45,    122,    0.5,    7.4,   0.00,   0.00,  999.3,    0.4, -999.0
23-04-2023, 00:00:55,    149,    0.2,    7.3,   0.00,   0.00,  999.2,    0.4, -999.0
23-04-2023, 00:01:05,    149,    0.7,    7.3,   0.00,   0.00,  999.3,    0.5, -999.0
23-04-2023, 00:01:15,    149,    0.1,    7.3,   0.00,   0.00,  999.2,    0.4, -999.0
23-04-2023, 00:01:25,    149,    0.0,    7.3,   0.00,   0.00,  999.2,    0.4, -999.0
23-04-2023, 00:01:35,    140,    1.0,    7.4,   0.00,   0.00,  999.3,    0.5, -999.0
23-04-2023, 00:01:45,    157,    1.0,    7.4,   0.00,   0.00,  999.3,    0.5, -999.0
23-04-2023, 00:01:55,    156,    0.8,    7.4,   0.00,   0.00,  999.3,    0.3, -999.0
23-04-2023, 00:02:05,    141,    0.9,    7.3,   0.00,   0.00,  999.3,    0.5, -999.0
23-04-2023, 00:02:15,    149,    1.9,    7.3,   0.00,   0.00,  999.3,    0.4, -999.0
23-04-2023, 00:02:25,    149,    1.8,    7.3,   0.00,   0.00,  999.3,    0.6, -999.0
23-04-2023, 00:02:35,    149,    0.7,    7.3,   0.00,   0.00,  999.2,    0.4, -999.0
23-04-2023, 00:02:45,    146,    1.2,    7.3,   0.00,   0.00,  999.3,    0.5, -999.0
23-04-2023, 00:02:55,    147,    2.4,    7.4,   0.00,   0.00,  999.3,    0.4, -999.0
23-04-2023, 00:03:05,    167,    1.0,    7.4,   0.00,   0.00,  999.3,    0.4, -999.0
23-04-2023, 00:03:15,    167,    0.0,    7.3,   0.00,   0.00,  999.2,    0.5, -999.0
23-04-2023, 00:03:25,    138,    0.8,    7.3,   0.00,   0.00,  999.2,    0.6, -999.0
23-04-2023, 00:03:35,    138,    0.5,    7.3,   0.00,   0.00,  999.2,    0.5, -999.0
23-04-2023, 00:03:45,    138,    0.4,    7.3,   0.00,   0.00,  999.2,    0.5, -999.0
23-04-2023, 00:03:55,    137,    0.3,    7.4,   0.00,   0.00,  999.2,    0.6, -999.0
23-04-2023, 00:04:05,    138,    1.3,    7.4,   0.00,   0.00,  999.2,    0.3, -999.0
23-04-2023, 00:04:15,    137,    0.8,    7.4,   0.00,   0.00,  999.2,    0.7, -999.0
23-04-2023, 00:04:25,    138,    1.7,    7.4,   0.00,   0.00,  999.2,    0.5, -999.0
23-04-2023, 00:04:34,    192,    2.3,    7.3,   0.00,   0.00,  999.2,    0.4, -999.0
23-04-2023, 00:04:45,    185,    0.3,    7.3,   0.00,   0.00,  999.2,    0.4, -999.0
23-04-2023, 00:04:55,    184,    0.1,    7.3,   0.00,   0.00,  999.1,    0.3, -999.0
23-04-2023, 00:05:04,    185,    0.0,    7.2,   0.00,   0.00,  999.1,    0.4, -999.0
23-04-2023, 00:05:14,    184,    0.0,    7.3,   0.00,   0.05,  999.1,    0.4, -999.0
23-04-2023, 00:05:25,    184,    0.0,    7.4,   0.00,   0.00,  999.1,    0.5, -999.0
23-04-2023, 00:05:35,    184,    0.1,    7.4,   0.00,   0.00,  999.2,    0.4, -999.0
23-04-2023, 00:05:44,    184,    0.0,    7.4,   0.00,   0.00,  999.1,    0.4, -999.0
23-04-2023, 00:05:54,    180,    0.7,    7.3,   0.00,   0.00,  999.2,    0.6, -999.0
23-04-2023, 00:06:05,    180,    0.0,    7.4,   0.00,   0.00,  999.1,    0.4, -999.0
23-04-2023, 00:06:14,    180,    0.0,    7.4,   0.00,   0.00,  999.1,    0.5, -999.0
23-04-2023, 00:06:24,    180,    0.4,    7.4,   0.00,   0.00,  999.2,    0.4, -999.0
23-04-2023, 00:06:35,    179,    0.1,    7.4,   0.00,   0.00,  999.2,    0.1, -999.0
23-04-2023, 00:06:44,    179,    0.0,    7.3,   0.00,   0.00,  999.1,    0.4, -999.0
23-04-2023, 00:06:54,    179,    0.0,    7.4,   0.00,   0.00,  999.1,    0.3, -999.0
23-04-2023, 00:07:04,    179,    0.0,    7.3,   0.00,   0.00,  999.0,    0.3, -999.0
23-04-2023, 00:07:15,    179,    0.1,    7.3,   0.00,   0.00,  999.1,    0.3, -999.0
23-04-2023, 00:07:24,    180,    0.4,    7.4,   0.00,   0.00,  999.2,    0.2, -999.0
23-04-2023, 00:07:34,    179,    0.1,    7.4,   0.00,   0.00,  999.2,    0.4, -999.0
23-04-2023, 00:07:44,    179,    0.0,    7.4,   0.00,   0.00,  999.0,    0.5, -999.0
23-04-2023, 00:07:54,    180,    0.0,    7.2,   0.00,   0.00,  999.0,    0.4, -999.0
23-04-2023, 00:08:04,    179,    0.8,    7.5,   0.00,   0.00,  999.1,    0.1, -999.0
23-04-2023, 00:08:14,    179,    0.3,    7.4,   0.00,   0.00,  999.1,    0.5, -999.0
23-04-2023, 00:08:24,    179,    0.8,    7.5,   0.00,   0.00,  999.1,    0.7, -999.0
23-04-2023, 00:08:34,    178,    1.2,    7.4,   0.00,   0.00,  999.2,    0.7, -999.0
23-04-2023, 00:08:44,    177,    1.0,    7.3,   0.00,   0.00,  999.2,    0.5, -999.0
23-04-2023, 00:08:54,    164,    1.4,    7.4,   0.00,   0.00,  999.2,    0.5, -999.0
23-04-2023, 00:09:04,    139,    1.6,    7.2,   0.00,   0.01,  999.1,    0.6, -999.0
23-04-2023, 00:09:14,    175,    1.3,    7.3,   0.00,   0.00,  999.2,    0.4, -999.0
23-04-2023, 00:09:24,    142,    0.6,    7.3,   0.00,   0.00,  999.2,    0.7, -999.0
23-04-2023, 00:09:34,    157,    1.7,    7.3,   0.00,   0.00,  999.2,    0.3, -999.0
23-04-2023, 00:09:44,    157,    0.7,    7.3,   0.00,   0.00,  999.2,    0.4, -999.0
23-04-2023, 00:09:54,    157,    0.1,    7.3,   0.00,   0.00,  999.1,    0.4, -999.0
23-04-2023, 00:10:04,    157,    0.0,    7.3,   0.00,   0.00,  999.0,    0.7, -999.0
23-04-2023, 00:10:14,    157,    0.2,    7.4,   0.00,   0.00,  999.0,    0.8, -999.0
23-04-2023, 00:10:24,    157,    0.3,    7.3,   0.00,   0.00,  999.1,    0.5, -999.0
23-04-2023, 00:10:34,    157,    0.2,    7.4,   0.00,   0.00,  999.1,    0.3, -999.0
23-04-2023, 00:10:44,    157,    0.0,    7.3,   0.00,   0.00,  999.0,    0.4, -999.0
23-04-2023, 00:10:54,    157,    0.0,    7.3,   0.00,   0.00,  999.0,    0.3, -999.0
23-04-2023, 00:11:04,    157,    0.0,    7.3,   0.00,   0.00,  999.0,    0.0, -999.0
23-04-2023, 00:11:14,    157,    0.1,    7.3,   0.00,   0.00,  999.1,    0.2, -999.0
23-04-2023, 00:11:24,    152,    0.9,    7.5,   0.00,   0.00,  999.1,    0.4, -999.0
23-04-2023, 00:11:34,    151,    0.1,    7.5,   0.00,   0.00,  999.1,    0.4, -999.0
23-04-2023, 00:11:44,    152,    0.1,    7.5,   0.00,   0.00,  999.1,    0.5, -999.0
23-04-2023, 00:11:54,    159,    0.5,    7.5,   0.00,   0.00,  999.2,    0.4, -999.0
23-04-2023, 00:12:04,    158,    0.0,    7.4,   0.00,   0.00,  999.1,    0.2, -999.0
23-04-2023, 00:12:14,    158,    0.0,    7.4,   0.00,   0.00,  999.1,    0.8, -999.0
23-04-2023, 00:12:24,    158,    0.1,    7.4,   0.00,   0.00,  999.1,    0.5, -999.0
23-04-2023, 00:12:34,    150,    0.8,    7.5,   0.00,   0.00,  999.2,    0.6, -999.0
23-04-2023, 00:12:44,    170,    0.5,    7.4,   0.00,   0.00,  999.1,    0.3, -999.0
23-04-2023, 00:12:54,    169,    0.8,    7.4,   0.00,   0.00,  999.2,    0.6, -999.0
23-04-2023, 00:13:04,    169,    0.2,    7.3,   0.00,   0.00,  999.2,    0.6, -999.0
23-04-2023, 00:13:14,    169,    0.1,    7.4,   0.00,   0.00,  999.1,    0.4, -999.0
23-04-2023, 00:13:24,    169,    0.3,    7.4,   0.00,   0.00,  999.1,    0.2, -999.0
23-04-2023, 00:13:33,    168,    0.6,    7.4,   0.00,   0.00,  999.2,    0.5, -999.0
23-04-2023, 00:13:44,    169,    0.0,    7.3,   0.00,   0.00,  999.1,    0.6, -999.0
23-04-2023, 00:13:54,    169,    0.5,    7.4,   0.00,   0.00,  999.1,    0.6, -999.0
23-04-2023, 00:14:03,    168,    0.0,    7.2,   0.00,   0.00,  999.1,    0.3, -999.0
23-04-2023, 00:14:13,    169,    0.0,    7.4,   0.00,   0.00,  999.0,    0.4, -999.0
23-04-2023, 00:14:24,    169,    0.1,    7.4,   0.00,   0.00,  999.1,    0.5, -999.0
23-04-2023, 00:14:34,    161,    1.0,    7.4,   0.00,   0.00,  999.2,    0.4, -999.0
23-04-2023, 00:14:43,    160,    0.7,    7.4,   0.00,   0.00,  999.2,    0.5, -999.0
23-04-2023, 00:14:53,    159,    1.3,    7.3,   0.00,   0.00,  999.2,    0.5, -999.0
23-04-2023, 00:15:04,    135,    2.1,    7.3,   0.00,   0.00,  999.2,    0.6, -999.0
23-04-2023, 00:15:13,    162,    1.4,    7.4,   0.00,   0.00,  999.2,    0.4, -999.0
23-04-2023, 00:15:25,    163,    0.7,    7.3,   0.00,   0.00,  999.2,    0.7, -999.0
23-04-2023, 00:15:34,    162,    0.1,    7.3,   0.00,   0.00,  999.1,    0.2, -999.0
23-04-2023, 00:15:44,    162,    0.1,    7.3,   0.00,   0.00,  999.1,    0.7, -999.0
23-04-2023, 00:15:53,    162,    0.0,    7.4,   0.00,   0.00,  999.0,    0.5, -999.0
23-04-2023, 00:16:03,    162,    0.2,    7.4,   0.00,   0.00,  999.1,    0.3, -999.0
23-04-2023, 00:16:14,    162,    0.8,    7.4,   0.00,   0.00,  999.2,    0.7, -999.0
23-04-2023, 00:16:23,    162,    0.3,    7.4,   0.00,   0.00,  999.1,    0.3, -999.0
23-04-2023, 00:16:33,    162,    0.0,    7.3,   0.00,   0.00,  999.0,    0.3, -999.0
23-04-2023, 00:16:43,    161,    0.0,    7.3,   0.00,   0.00,  999.0,    0.5, -999.0
23-04-2023, 00:16:53,    162,    0.0,    7.3,   0.00,   0.00,  999.0,    0.4, -999.0
23-04-2023, 00:17:03,    162,    0.1,    7.3,   0.00,   0.00,  999.1,    0.5, -999.0
23-04-2023, 00:17:13,    162,    0.5,    7.4,   0.00,   0.00,  999.1,    0.4, -999.0
23-04-2023, 00:17:23,    162,    0.6,    7.1,   0.00,   0.00,  999.1,    0.7, -999.0
23-04-2023, 00:17:33,    162,    0.0,    7.3,   0.00,   0.00,  999.0,    0.4, -999.0
23-04-2023, 00:17:43,    162,    0.0,    7.3,   0.00,   0.00,  999.0,    0.3, -999.0
23-04-2023, 00:17:53,    162,    0.0,    7.3,   0.00,   0.00,  999.0,    0.5, -999.0
23-04-2023, 00:18:03,    162,    0.0,    7.3,   0.00,   0.00,  999.0,    0.5, -999.0
23-04-2023, 00:18:13,    162,    0.0,    7.3,   0.00,   0.00,  999.0,    0.4, -999.0
23-04-2023, 00:18:23,    161,    0.0,    7.4,   0.00,   0.00,  999.0,    0.3, -999.0
23-04-2023, 00:18:33,    159,    0.0,    7.3,   0.00,   0.00,  999.0,    0.3, -999.0
23-04-2023, 00:18:43,    162,    0.7,    7.4,   0.00,   0.00,  999.1,    0.5, -999.0
23-04-2023, 00:18:53,    162,    0.2,    7.4,   0.00,   0.00,  999.1,    0.5, -999.0
23-04-2023, 00:19:03,    179,    0.6,    7.4,   0.00,   0.00,  999.1,    0.5, -999.0
23-04-2023, 00:19:13,    139,    1.6,    7.4,   0.00,   0.00,  999.1,    0.3, -999.0
23-04-2023, 00:19:23,    148,    1.5,    7.4,   0.00,   0.00,  999.1,    0.3, -999.0
23-04-2023, 00:19:33,    171,    0.9,    7.4,   0.00,   0.00,  999.1,    0.5, -999.0
23-04-2023, 00:19:43,    171,    0.1,    7.3,   0.00,   0.00,  999.0,    0.4, -999.0
23-04-2023, 00:19:53,    168,    0.2,    7.5,   0.00,   0.00,  999.0,    0.5, -999.0
23-04-2023, 00:20:03,    171,    0.2,    7.4,   0.00,   0.00,  999.0,    0.5, -999.0
23-04-2023, 00:20:13,    170,    0.2,    7.4,   0.00,   0.00,  999.1,    0.4, -999.0
23-04-2023, 00:20:23,    193,    0.2,    7.4,   0.00,   0.00,  999.0,    0.6, -999.0
23-04-2023, 00:20:33,    190,    0.7,    7.3,   0.00,   0.00,  999.1,    0.4, -999.0
23-04-2023, 00:20:43,    189,    0.4,    7.3,   0.00,   0.00,  999.0,    0.6, -999.0
23-04-2023, 00:20:53,    212,    1.7,    7.3,   0.00,   0.00,  999.1,    0.7, -999.0
23-04-2023, 00:21:03,    173,    1.6,    7.4,   0.00,   0.00,  999.1,    0.4, -999.0
23-04-2023, 00:21:13,    198,    1.3,    7.3,   0.00,   0.00,  999.0,    0.4, -999.0
23-04-2023, 00:21:23,    157,    0.8,    7.3,   0.00,   0.00,  999.0,    0.4, -999.0
23-04-2023, 00:21:33,    166,    1.9,    7.4,   0.00,   0.00,  999.1,    0.6, -999.0
23-04-2023, 00:21:43,    169,    0.8,    7.4,   0.00,   0.00,  999.0,    0.4, -999.0
23-04-2023, 00:21:53,    161,    0.5,    7.3,   0.00,   0.00,  999.0,    0.4, -999.0
23-04-2023, 00:22:03,    161,    0.1,    7.3,   0.00,   0.00,  999.0,    0.3, -999.0
23-04-2023, 00:22:13,    160,    0.1,    7.3,   0.00,   0.00,  998.9,    0.5, -999.0
23-04-2023, 00:22:23,    161,    0.0,    7.3,   0.00,   0.00,  998.9,    0.4, -999.0
23-04-2023, 00:22:32,    161,    0.0,    7.3,   0.00,   0.00,  998.9,    0.5, -999.0
23-04-2023, 00:22:43,    161,    0.0,    7.3,   0.00,   0.00,  998.9,    0.5, -999.0
23-04-2023, 00:22:53,    161,    0.0,    7.2,   0.00,   0.00,  998.9,    0.3, -999.0
23-04-2023, 00:23:02,    161,    0.0,    7.3,   0.00,   0.00,  998.9,    0.4, -999.0
23-04-2023, 00:23:12,    161,    0.2,    7.3,   0.00,   0.00,  999.0,    0.4, -999.0
23-04-2023, 00:23:23,    161,    0.0,    7.3,   0.00,   0.00,  998.9,    0.4, -999.0
23-04-2023, 00:23:33,    160,    0.0,    7.3,   0.00,   0.00,  998.9,    0.4, -999.0
23-04-2023, 00:23:42,    161,    0.0,    7.3,   0.00,   0.00,  998.9,    0.5, -999.0
23-04-2023, 00:23:53,    160,    0.0,    7.3,   0.00,   0.00,  998.9,    0.3, -999.0
23-04-2023, 00:24:03,    160,    0.0,    7.3,   0.00,   0.00,  998.9,    0.5, -999.0
23-04-2023, 00:24:12,    161,    0.0,    7.3,   0.00,   0.00,  998.9,    0.4, -999.0
23-04-2023, 00:24:22,    161,    0.0,    7.4,   0.00,   0.00,  998.9,    0.4, -999.0
23-04-2023, 00:24:33,    161,    0.0,    7.4,   0.00,   0.00,  998.9,    0.3, -999.0
23-04-2023, 00:24:43,    160,    0.4,    7.5,   0.00,   0.00,  999.0,    0.4, -999.0
23-04-2023, 00:24:52,    163,    0.0,    7.3,   0.00,   0.00,  998.9,    0.4, -999.0
23-04-2023, 00:25:02,    160,    0.0,    7.3,   0.00,   0.00,  998.9,    0.4, -999.0
23-04-2023, 00:25:13,    161,    0.2,    7.3,   0.00,   0.00,  999.0,    0.4, -999.0
23-04-2023, 00:25:22,    160,    0.1,    7.3,   0.00,   0.00,  999.0,    0.5, -999.0
23-04-2023, 00:25:32,    161,    0.0,    7.1,   0.00,   0.00,  998.9,    0.4, -999.0
23-04-2023, 00:25:42,    154,    1.9,    7.4,   0.00,   0.00,  999.0,    0.3, -999.0
23-04-2023, 00:25:52,    137,    1.8,    7.4,   0.00,   0.00,  999.0,    0.7, -999.0
23-04-2023, 00:26:02,    182,    1.9,    7.3,   0.00,   0.00,  999.0,    0.5, -999.0
23-04-2023, 00:26:12,    181,    0.6,    7.3,   0.00,   0.00,  999.0,    0.5, -999.0
23-04-2023, 00:26:22,    182,    0.1,    7.3,   0.00,   0.00,  998.9,    0.5, -999.0
23-04-2023, 00:26:32,    181,    0.3,    7.3,   0.00,   0.00,  999.0,    0.3, -999.0
23-04-2023, 00:26:42,    181,    0.6,    7.4,   0.00,   0.00,  999.0,    0.4, -999.0
23-04-2023, 00:26:52,    181,    0.3,    7.4,   0.00,   0.00,  999.0,    0.3, -999.0
23-04-2023, 00:27:02,    181,    0.0,    7.3,   0.00,   0.00,  998.9,    0.5, -999.0
23-04-2023, 00:27:12,    151,    1.7,    7.3,   0.00,   0.00,  999.0,    0.5, -999.0
23-04-2023, 00:27:22,    150,    0.5,    7.3,   0.00,   0.00,  999.0,    0.4, -999.0
23-04-2023, 00:27:32,    150,    0.0,    7.2,   0.00,   0.00,  998.8,    0.3, -999.0
23-04-2023, 00:27:42,    151,    0.2,    7.3,   0.00,   0.00,  998.9,    0.5, -999.0
23-04-2023, 00:27:52,    151,    1.0,    7.3,   0.00,   0.00,  999.0,    0.2, -999.0
23-04-2023, 00:28:02,    151,    0.6,    7.3,   0.00,   0.00,  999.0,    0.2, -999.0
23-04-2023, 00:28:12,    150,    0.0,    7.2,   0.00,   0.00,  998.8,    0.3, -999.0
23-04-2023, 00:28:22,    150,    0.2,    7.3,   0.00,   0.00,  998.9,    0.3, -999.0
23-04-2023, 00:28:32,    151,    0.7,    7.3,   0.00,   0.00,  999.0,    0.6, -999.0
23-04-2023, 00:28:42,    150,    0.2,    7.3,   0.00,   0.00,  999.0,    0.2, -999.0
23-04-2023, 00:28:52,    146,    1.6,    7.4,   0.00,   0.00,  999.0,    0.3, -999.0
23-04-2023, 00:29:02,    149,    0.6,    7.4,   0.00,   0.00,  999.0,    0.5, -999.0
23-04-2023, 00:29:12,    149,    0.2,    7.3,   0.00,   0.00,  998.9,    0.3, -999.0
23-04-2023, 00:29:22,    149,    0.0,    7.3,   0.00,   0.00,  998.9,    0.3, -999.0
23-04-2023, 00:29:32,    157,    0.7,    7.3,   0.00,   0.00,  999.0,    0.3, -999.0
23-04-2023, 00:29:42,    156,    0.7,    7.3,   0.00,   0.00,  998.9,    0.7, -999.0
23-04-2023, 00:29:52,    157,    0.7,    7.3,   0.00,   0.00,  999.0,    0.4, -999.0
23-04-2023, 00:30:02,    156,    0.5,    7.3,   0.00,   0.00,  999.0,    0.5, -999.0
23-04-2023, 00:30:12,    164,    0.5,    7.3,   0.00,   0.00,  999.0,    0.4, -999.0
23-04-2023, 00:30:22,    163,    0.0,    7.3,   0.00,   0.00,  998.9,    0.6, -999.0
23-04-2023, 00:30:32,    163,    0.0,    7.3,   0.00,   0.00,  998.8,    0.5, -999.0
23-04-2023, 00:30:42,    163,    0.3,    7.3,   0.00,   0.00,  998.9,    0.5, -999.0
23-04-2023, 00:30:52,    163,    0.0,    7.3,   0.00,   0.00,  998.9,    0.2, -999.0
23-04-2023, 00:31:02,    163,    0.0,    7.2,   0.00,   0.01,  998.9,    0.6, -999.0
23-04-2023, 00:31:12,    166,    0.5,    7.3,   0.00,   0.00,  999.0,    0.5, -999.0
23-04-2023, 00:31:22,    166,    1.0,    7.3,   0.00,   0.00,  999.0,    0.4, -999.0
23-04-2023, 00:31:32,    163,    1.5,    7.3,   0.00,   0.00,  999.0,    0.6, -999.0
23-04-2023, 00:31:42,    164,    1.0,    7.3,   0.00,   0.00,  998.9,    0.3, -999.0
23-04-2023, 00:31:52,    165,    0.2,    7.3,   0.00,   0.00,  998.9,    0.4, -999.0
23-04-2023, 00:32:01,    165,    0.0,    7.3,   0.00,   0.00,  998.8,    0.5, -999.0
23-04-2023, 00:32:12,    165,    0.8,    7.3,   0.00,   0.00,  998.9,    0.6, -999.0
23-04-2023, 00:32:22,    165,    0.3,    7.4,   0.00,   0.00,  998.9,    0.3, -999.0
23-04-2023, 00:32:32,    164,    0.6,    7.4,   0.00,   0.00,  998.9,    0.5, -999.0
23-04-2023, 00:32:41,    165,    0.0,    7.3,   0.00,   0.00,  998.9,    0.5, -999.0
23-04-2023, 00:32:52,    164,    0.3,    7.4,   0.00,   0.00,  998.9,    0.4, -999.0
23-04-2023, 00:33:02,    164,    0.0,    7.3,   0.00,   0.00,  998.8,    0.3, -999.0
23-04-2023, 00:33:11,    163,    0.0,    7.3,   0.00,   0.00,  998.8,    0.4, -999.0
23-04-2023, 00:33:21,    165,    0.0,    7.3,   0.00,   0.00,  998.8,    0.5, -999.0
23-04-2023, 00:33:32,    165,    0.1,    7.4,   0.00,   0.00,  998.8,    0.4, -999.0
23-04-2023, 00:33:41,    164,    0.8,    7.4,   0.00,   0.00,  998.9,    0.6, -999.0
23-04-2023, 00:33:51,    148,    2.2,    7.4,   0.00,   0.00,  998.9,    0.7, -999.0
23-04-2023, 00:34:02,    186,    1.4,    7.2,   0.00,   0.00,  998.9,    0.4, -999.0
23-04-2023, 00:34:12,    179,    1.0,    7.3,   0.00,   0.00,  998.9,    0.4, -999.0
23-04-2023, 00:34:21,    182,    0.8,    7.4,   0.00,   0.00,  998.9,    0.6, -999.0
23-04-2023, 00:34:31,    179,    1.0,    7.3,   0.00,   0.00,  998.9,    0.4, -999.0
23-04-2023, 00:34:42,    179,    0.7,    7.4,   0.00,   0.00,  998.9,    0.6, -999.0
23-04-2023, 00:34:51,    179,    0.3,    7.4,   0.00,   0.00,  998.9,    0.4, -999.0
23-04-2023, 00:35:01,    179,    0.4,    7.4,   0.00,   0.00,  998.9,    0.3, -999.0
23-04-2023, 00:35:11,    145,    1.4,    7.3,   0.00,   0.00,  998.9,    0.3, -999.0
23-04-2023, 00:35:22,    152,    1.1,    7.4,   0.00,   0.00,  998.9,    0.3, -999.0
23-04-2023, 00:35:31,    153,    0.3,    7.4,   0.00,   0.00,  998.9,    0.5, -999.0
23-04-2023, 00:35:41,    157,    0.2,    7.4,   0.00,   0.00,  998.9,    0.5, -999.0
23-04-2023, 00:35:51,    157,    0.0,    7.4,   0.00,   0.00,  998.9,    0.6, -999.0
23-04-2023, 00:36:01,    157,    0.0,    7.3,   0.00,   0.00,  998.8,    0.2, -999.0
23-04-2023, 00:36:11,    158,    0.1,    7.5,   0.00,   0.00,  998.9,    0.5, -999.0
23-04-2023, 00:36:21,    157,    0.1,    7.5,   0.00,   0.00,  998.9,    0.5, -999.0
23-04-2023, 00:36:31,    157,    0.0,    7.4,   0.00,   0.00,  998.8,    0.4, -999.0
23-04-2023, 00:36:41,    158,    0.0,    7.4,   0.00,   0.00,  998.8,    0.6, -999.0
23-04-2023, 00:36:51,    157,    0.0,    7.4,   0.00,   0.00,  998.8,    0.3, -999.0
23-04-2023, 00:37:01,    157,    0.2,    7.4,   0.00,   0.00,  998.9,    0.5, -999.0
23-04-2023, 00:37:11,    157,    0.0,    7.4,   0.00,   0.00,  998.8,    0.3, -999.0
23-04-2023, 00:37:21,    157,    0.3,    7.5,   0.00,   0.00,  998.8,    0.4, -999.0
23-04-2023, 00:37:31,    157,    0.0,    7.5,   0.00,   0.00,  998.8,    0.3, -999.0
23-04-2023, 00:37:41,    157,    0.0,    7.4,   0.00,   0.00,  998.8,    0.4, -999.0
23-04-2023, 00:37:51,    157,    0.0,    7.5,   0.00,   0.00,  998.8,    0.4, -999.0
23-04-2023, 00:38:01,    157,    0.0,    7.5,   0.00,   0.00,  998.8,    0.4, -999.0
23-04-2023, 00:38:11,    158,    0.1,    7.5,   0.00,   0.00,  998.8,    0.4, -999.0
23-04-2023, 00:38:21,    157,    0.1,    7.4,   0.00,   0.00,  998.8,    0.4, -999.0
23-04-2023, 00:38:31,    158,    0.1,    7.3,   0.00,   0.00,  998.9,    0.2, -999.0
23-04-2023, 00:38:41,    161,    0.7,    7.5,   0.00,   0.00,  998.9,    0.3, -999.0
23-04-2023, 00:38:51,    161,    0.3,    7.4,   0.00,   0.00,  998.9,    0.3, -999.0
23-04-2023, 00:39:01,    161,    1.2,    7.4,   0.00,   0.00,  998.9,    0.7, -999.0
23-04-2023, 00:39:11,    163,    1.2,    7.4,   0.00,   0.00,  998.9,    0.4, -999.0
23-04-2023, 00:39:21,    162,    0.5,    7.3,   0.00,   0.00,  998.9,    0.7, -999.0
23-04-2023, 00:39:31,    163,    0.3,    7.3,   0.00,   0.00,  998.8,    0.4, -999.0
23-04-2023, 00:39:41,    163,    0.3,    7.4,   0.00,   0.00,  998.9,    0.6, -999.0
23-04-2023, 00:39:51,    163,    0.0,    7.4,   0.00,   0.00,  998.8,    0.4, -999.0
23-04-2023, 00:40:01,    163,    0.0,    7.3,   0.00,   0.00,  998.8,    0.4, -999.0
23-04-2023, 00:40:11,    163,    0.0,    7.3,   0.00,   0.00,  998.8,    0.5, -999.0
23-04-2023, 00:40:21,    163,    0.0,    7.3,   0.00,   0.00,  998.8,    0.5, -999.0
23-04-2023, 00:40:31,    163,    0.1,    7.3,   0.00,   0.00,  998.8,    0.4, -999.0
23-04-2023, 00:40:41,    163,    0.0,    7.4,   0.00,   0.00,  998.8,    0.3, -999.0
23-04-2023, 00:40:51,    162,    0.0,    7.4,   0.00,   0.00,  998.8,    0.4, -999.0
23-04-2023, 00:41:01,    163,    0.0,    7.3,   0.00,   0.00,  998.8,    0.4, -999.0
23-04-2023, 00:41:11,    167,    0.0,    7.3,   0.00,   0.00,  998.9,    0.6, -999.0
23-04-2023, 00:41:21,    165,    0.4,    7.4,   0.00,   0.00,  998.9,    0.3, -999.0
23-04-2023, 00:41:31,    164,    0.1,    7.4,   0.00,   0.00,  998.8,    0.5, -999.0
23-04-2023, 00:41:40,    154,    1.6,    7.4,   0.00,   0.00,  998.9,    0.5, -999.0
23-04-2023, 00:41:51,    158,    0.4,    7.4,   0.00,   0.00,  998.9,    0.4, -999.0
23-04-2023, 00:42:01,    158,    0.5,    7.4,   0.00,   0.00,  998.9,    0.8, -999.0
23-04-2023, 00:42:11,    157,    0.2,    7.4,   0.00,   0.00,  998.8,    0.3, -999.0
23-04-2023, 00:42:20,    158,    0.0,    7.3,   0.00,   0.00,  998.8,    0.2, -999.0
23-04-2023, 00:42:31,    158,    0.3,    7.4,   0.00,   0.00,  998.9,    0.6, -999.0
23-04-2023, 00:42:41,    157,    0.0,    7.3,   0.00,   0.00,  998.8,    0.4, -999.0
23-04-2023, 00:42:50,    158,    0.0,    7.4,   0.00,   0.00,  998.8,    0.4, -999.0
23-04-2023, 00:43:00,    157,    0.0,    7.3,   0.00,   0.00,  998.8,    0.3, -999.0
23-04-2023, 00:43:11,    158,    0.0,    7.4,   0.00,   0.00,  998.8,    0.5, -999.0
23-04-2023, 00:43:20,    157,    0.6,    7.4,   0.00,   0.00,  998.8,    0.6, -999.0
23-04-2023, 00:43:30,    157,    0.0,    7.3,   0.00,   0.00,  998.7,    0.6, -999.0
23-04-2023, 00:43:40,    159,    0.1,    7.4,   0.00,   0.00,  998.8,    0.5, -999.0
23-04-2023, 00:43:51,    155,    0.6,    7.4,   0.00,   0.00,  998.9,    0.5, -999.0
23-04-2023, 00:44:00,    157,    1.7,    7.5,   0.00,   0.00,  998.9,    0.6, -999.0
23-04-2023, 00:44:10,    160,    1.5,    7.4,   0.00,   0.00,  998.9,    0.5, -999.0
23-04-2023, 00:44:21,    162,    1.7,    7.4,   0.00,   0.00,  998.9,    0.3, -999.0
23-04-2023, 00:44:30,    161,    0.4,    7.3,   0.00,   0.00,  998.9,    0.3, -999.0
23-04-2023, 00:44:40,    161,    0.0,    7.2,   0.00,   0.00,  998.8,    0.5, -999.0
23-04-2023, 00:44:50,    161,    0.0,    7.3,   0.00,   0.00,  998.8,    0.3, -999.0
23-04-2023, 00:45:00,    162,    0.0,    7.3,   0.00,   0.00,  998.8,    0.3, -999.0
23-04-2023, 00:45:10,    159,    0.6,    7.4,   0.00,   0.00,  998.9,    0.8, -999.0
23-04-2023, 00:45:20,    146,    1.6,    7.4,   0.00,   0.00,  998.9,    0.3, -999.0
23-04-2023, 00:45:30,    150,    0.4,    7.5,   0.00,   0.00,  998.9,    0.5, -999.0
23-04-2023, 00:45:40,    149,    1.1,    7.4,   0.00,   0.00,  998.9,    0.6, -999.0
23-04-2023, 00:45:50,    149,    0.8,    7.4,   0.00,   0.00,  998.9,    0.4, -999.0
23-04-2023, 00:46:00,    149,    0.0,    7.3,   0.00,   0.00,  998.8,    0.4, -999.0
23-04-2023, 00:46:10,    149,    0.0,    7.4,   0.00,   0.00,  998.8,    0.2, -999.0
23-04-2023, 00:46:20,    149,    0.0,    7.3,   0.00,   0.00,  998.8,    0.5, -999.0
23-04-2023, 00:46:30,    149,    0.0,    7.3,   0.00,   0.00,  998.8,    0.4, -999.0
23-04-2023, 00:46:40,    149,    0.0,    7.3,   0.00,   0.00,  998.8,    0.6, -999.0
23-04-2023, 00:46:50,    149,    0.1,    7.4,   0.00,   0.00,  998.9,    0.6, -999.0